Location: Hohenfelde
(53.8441°N, 9.6220°E)
Time: 11:42:57
(UTC+00:00)

SeaSat 1 - Pass Details

Date: 14 July 2020
Orbit: 744 x 748 km, 108.0° (Epoch: 12 August)

Event Time Altitude Azimuth Distance (km) Brightness Sun altitude
Rises 02:11:57 0° 31° (NNE) 3,204 8.2 -6.6°
Reaches altitude 10° 02:14:14 10° 30° (NNE) 2,276 6.7 -6.4°
Maximum altitude 02:19:10 72° 307° (NW) 789 2.6 -6.0°
Drops below altitude 10° 02:24:04 10° 223° (SW) 2,264 4.3 -5.5°
Enters shadow 02:24:47 - 223° (SW) 2,554 4.5 -5.4°
